Theta_e
311 313 314 315 316 316 315 313 314 314 312 311 312 312 312 312 313 312 313 313 310 309 311 311 311 311 311 311 312 313 313 313 313 313 313 313 313 314 313 313 313 313 313 313 312 311 310 310 310 311 311 312 312 312 312 311 311 311 311 311 311 311 311 311 311 311 311 311 311 311 311 312 312 313 313 313 313 314 314 314 314 314 314 313 312 310
311 314 315 315 315 314 313 312 312 312 311 311 311 312 312 312 313 312 313 312 309 309 311 310 310 311 311 311 312 313 313 313 313 313 314 313 314 314 313 313 313 312 312 311 310 309 309 309 310 311 311 312 313 313 312 312 312 311 311 310 310 310 310 310 310 310 310 310 310 310 311 311 311 312 312 312 313 313 313 314 314 314 313 313 313 311
312 314 315 314 313 311 310 310 310 310 311 311 312 312 312 313 313 313 312 310 307 308 311 311 310 311 311 312 313 313 313 313 314 314 313 313 313 313 313 313 312 311 310 309 308 307 307 307 309 310 311 312 313 313 312 312 311 311 311 311 310 310 310 310 309 309 309 309 309 309 310 310 310 311 311 312 312 312 313 313 313 314 313 313 313 312
314 314 313 314 312 310 310 310 309 310 310 311 312 312 313 314 314 313 311 309 308 309 310 309 310 312 313 313 312 313 313 313 313 313 312 312 312 312 312 311 310 309 309 308 307 305 305 307 309 310 310 311 312 312 312 311 311 310 310 310 310 310 309 309 309 309 308 308 308 308 308 308 309 309 310 310 311 311 312 312 312 313 313 313 313 313
316 314 310 311 310 309 311 311 310 311 312 313 312 312 313 314 313 313 312 309 310 310 308 309 313 314 314 314 314 313 313 312 312 313 313 312 311 310 311 310 309 308 307 306 304 303 306 308 308 308 309 309 310 310 311 311 310 309 309 309 309 309 309 308 308 308 308 307 307 307 307 307 307 308 308 309 309 310 311 311 312 312 313 313 313 313
315 312 309 310 310 309 311 312 313 312 313 314 314 313 312 312 312 312 312 310 311 313 310 310 315 316 314 314 315 315 315 315 314 314 314 312 311 310 310 309 308 307 306 305 304 304 306 307 307 308 308 308 308 308 309 309 309 308 308 308 309 309 309 308 308 307 307 307 307 307 307 307 307 307 308 308 308 309 309 310 311 311 312 312 313 312
312 308 308 311 311 311 311 311 313 313 312 314 313 312 311 311 312 312 311 311 312 314 310 310 314 317 315 314 315 315 316 316 315 315 315 312 310 310 309 308 307 305 304 305 305 305 306 306 306 307 307 307 307 307 307 308 308 307 307 308 309 309 308 308 308 307 307 306 306 306 306 306 306 307 307 307 308 308 308 309 309 310 310 311 312 312
310 308 308 310 311 312 312 312 313 311 312 314 313 311 310 310 311 312 311 311 312 312 311 310 313 315 315 315 314 315 315 315 315 315 314 312 311 309 308 306 305 304 303 304 304 305 305 305 305 305 305 305 305 306 307 308 307 307 308 309 308 308 308 308 307 307 307 306 306 306 306 306 306 306 306 306 307 307 307 307 307 308 308 309 310 310
309 311 311 310 311 311 312 313 313 311 312 313 311 309 309 310 311 311 311 311 311 311 313 312 311 314 316 315 313 312 313 314 315 314 314 312 310 308 306 304 304 303 302 302 302 303 303 304 304 304 304 304 305 305 306 306 306 307 308 309 308 307 307 306 306 306 306 305 305 305 305 305 305 305 305 306 306 306 306 306 306 306 307 307 307 308
309 309 309 310 312 312 312 311 310 311 312 310 309 309 309 309 309 310 310 311 311 311 315 314 312 315 316 315 313 312 312 315 314 313 313 311 308 306 304 303 303 302 302 301 301 301 302 302 303 303 304 305 305 305 306 306 307 308 309 309 308 307 306 305 305 305 305 304 304 304 304 304 305 304 304 305 305 305 305 305 305 306 306 306 306 306
307 305 306 309 311 310 310 307 306 310 309 307 309 310 310 310 308 309 309 310 312 315 316 314 313 314 315 315 315 313 312 313 313 313 313 310 306 304 303 302 301 301 301 301 301 301 301 301 302 303 304 304 305 305 306 307 308 309 310 310 308 306 305 305 304 304 304 303 303 303 303 303 303 303 304 304 304 304 304 304 304 305 305 305 305 305
308 306 307 309 308 307 309 308 305 306 306 307 310 310 311 312 310 310 310 310 314 317 315 312 312 313 314 315 314 312 311 310 311 312 311 308 305 304 302 300 300 299 299 299 300 300 301 302 302 303 303 303 304 305 305 306 307 308 309 309 307 305 304 304 304 304 303 303 302 302 302 302 302 302 303 303 303 303 303 303 303 304 304 304 304 304
311 310 309 308 307 307 309 310 307 306 307 308 310 310 312 314 314 314 314 313 315 317 312 309 311 312 313 314 313 313 312 310 309 309 308 306 304 302 301 299 298 298 298 298 299 300 300 301 301 301 301 301 302 302 302 303 304 306 306 307 306 305 303 303 303 303 303 302 302 302 302 301 301 302 301 302 302 302 302 302 302 303 303 303 304 304
314 313 309 308 309 308 309 310 311 310 309 308 310 311 313 316 317 318 317 313 315 316 310 307 311 312 313 314 313 313 311 307 305 305 305 304 302 301 300 298 297 297 298 298 298 299 299 299 299 299 299 299 299 300 300 300 301 302 303 304 304 304 303 303 302 302 302 302 301 301 301 301 301 301 301 301 301 301 301 301 302 302 302 302 303 303
315 317 312 311 311 309 308 310 313 313 310 309 311 311 313 316 317 317 317 316 317 316 310 307 311 313 313 313 311 309 307 305 304 303 302 302 301 299 298 297 296 296 297 297 297 297 298 298 298 298 298 298 298 299 299 300 300 300 301 301 302 302 303 303 303 303 302 302 301 301 300 300 300 300 300 300 300 300 301 300 301 301 301 301 302 302
314 317 314 310 309 308 309 310 311 313 312 309 308 310 312 314 316 316 317 317 317 316 313 310 312 314 314 313 311 307 304 304 303 302 301 300 300 299 297 297 295 295 295 296 297 297 297 297 298 298 298 298 298 298 298 298 299 299 299 299 299 300 301 301 302 302 302 302 302 301 301 300 300 300 300 300 299 300 300 300 300 300 300 300 301 301
315 316 313 309 307 307 308 308 308 310 312 310 308 311 312 311 313 315 315 315 313 315 316 315 314 314 313 315 312 307 304 303 302 301 301 299 299 298 297 296 295 294 294 294 295 295 296 296 297 297 297 297 297 297 297 297 297 298 298 298 298 299 299 299 300 301 301 302 302 302 302 302 302 301 301 300 300 299 299 300 300 300 300 300 300 300
315 316 314 311 311 308 305 305 307 308 310 310 310 312 311 310 311 312 313 315 314 315 317 315 316 315 314 315 313 308 305 304 301 300 300 298 298 297 296 295 294 293 294 294 295 295 296 296 296 296 296 296 296 296 296 296 296 296 296 297 297 298 298 298 298 299 299 300 301 301 302 302 302 302 302 301 301 300 300 300 300 299 300 300 300 300
311 314 315 313 312 309 305 306 309 308 307 309 311 311 311 312 313 312 313 314 315 316 317 316 315 315 314 314 313 311 307 304 301 299 298 297 297 296 295 294 293 293 293 293 294 294 294 295 295 296 296 296 296 296 296 296 296 297 297 297 297 297 297 298 298 298 298 298 298 299 300 300 301 301 302 302 302 301 301 301 300 299 299 299 299 300
311 313 316 314 312 309 307 309 311 311 308 307 309 310 310 311 313 313 314 314 315 316 316 316 315 314 314 313 312 311 306 303 302 299 297 296 296 295 294 294 293 293 292 291 291 291 291 292 293 294 294 295 295 296 296 296 297 297 297 297 298 298 298 298 298 298 298 298 297 297 298 298 299 299 300 300 301 301 302 302 301 301 300 299 298 298
312 313 315 315 313 311 311 311 312 312 312 309 309 310 310 310 312 312 312 313 315 315 316 316 315 315 312 309 309 307 304 302 301 298 297 296 295 295 294 293 293 292 291 291 292 291 291 291 291 292 292 293 293 294 295 295 295 295 296 296 296 297 298 298 298 298 298 298 298 298 297 297 298 298 298 299 299 300 300 301 301 301 301 300 299 298
312 313 314 314 313 313 313 313 312 312 312 312 311 312 311 312 313 312 312 313 313 313 315 314 315 315 310 304 304 304 301 301 300 298 297 296 295 294 293 293 292 291 292 292 292 292 293 293 293 293 293 293 293 293 293 293 293 293 294 294 294 295 295 295 296 296 296 296 297 297 298 298 297 297 298 298 298 298 298 299 300 301 301 301 300 299
311 312 313 313 313 312 313 312 311 310 311 311 311 312 313 312 312 313 314 314 313 314 314 313 315 315 306 301 302 302 300 300 298 298 297 296 295 294 293 292 292 292 292 292 292 292 292 292 293 293 293 293 293 292 292 292 292 293 293 293 293 293 293 293 293 294 294 295 295 295 296 297 298 298 298 298 297 297 297 297 298 299 299 300 300 300
309 310 312 313 313 312 312 312 311 309 309 311 311 311 311 311 312 313 312 310 310 313 314 314 315 314 305 300 300 299 298 298 297 297 296 295 295 294 292 291 291 291 291 291 291 292 292 292 292 293 293 292 292 292 292 292 292 292 292 292 292 292 292 292 292 292 292 293 293 293 294 294 296 297 297 298 297 297 296 296 296 297 298 299 299 299
309 311 312 312 313 313 312 312 311 309 309 311 311 311 311 311 312 313 311 309 308 311 312 312 314 314 306 299 298 298 297 297 296 296 295 295 294 293 292 291 290 290 290 289 290 290 290 291 291 291 291 291 291 291 291 291 291 291 291 290 291 291 291 291 291 291 291 291 291 292 293 293 293 294 295 296 296 296 296 296 295 295 296 297 298 298
309 312 312 311 312 313 312 312 312 311 310 310 310 310 310 311 311 310 310 310 310 312 312 312 312 311 304 298 297 298 297 296 296 295 294 294 293 293 292 291 291 290 289 289 289 288 289 289 289 289 289 289 290 290 290 290 290 290 290 290 290 290 289 290 290 290 290 289 290 290 290 291 292 292 292 292 293 294 295 295 295 295 295 295 295 296
307 309 311 310 311 311 310 311 311 311 310 310 310 311 311 311 310 308 308 309 309 310 310 310 310 310 306 302 299 298 298 297 296 295 294 294 293 293 292 291 290 290 290 289 289 289 288 288 288 288 288 288 288 288 288 289 289 289 289 289 289 289 289 289 289 289 289 289 288 288 288 289 289 290 290 290 290 291 292 292 293 294 294 294 294 294
307 308 309 309 309 308 308 308 308 309 309 309 309 309 309 309 309 309 308 308 308 308 309 309 308 309 309 307 305 300 297 297 297 295 295 294 293 293 292 291 290 290 290 289 289 289 289 288 288 288 288 288 288 288 288 288 288 288 288 288 288 288 288 288 288 288 288 288 288 288 288 287 287 287 288 288 289 289 290 290 291 292 293 293 294 294
308 307 306 308 308 307 307 306 306 307 307 307 307 307 307 307 308 308 308 307 307 308 308 307 308 308 307 307 307 301 297 297 296 294 294 293 293 293 293 292 290 289 289 289 289 289 288 288 288 288 288 287 287 287 287 287 287 287 287 287 287 287 287 287 288 288 287 287 287 287 287 287 287 287 287 287 287 288 288 289 289 289 290 291 292 293
307 307 307 307 307 307 307 306 306 306 306 306 306 306 306 306 306 306 306 306 306 306 306 306 306 306 306 305 304 298 295 295 294 293 292 292 293 293 293 292 291 290 289 289 289 289 289 288 288 288 288 287 287 287 287 287 287 287 287 287 287 287 287 287 287 287 287 287 287 287 287 287 287 287 287 286 286 287 287 287 288 288 288 288 289 290
305 306 306 305 305 305 305 305 304 304 304 304 304 304 304 304 304 304 304 304 304 304 304 303 304 304 302 300 299 296 294 293 293 292 292 291 292 292 293 293 291 290 290 289 289 288 288 288 288 288 288 288 288 287 287 287 287 287 287 287 287 287 287 286 286 286 286 286 286 286 286 286 286 286 286 286 286 286 286 286 286 287 287 287 287 288
304 304 304 303 304 304 303 303 302 302 302 302 302 302 301 302 302 302 302 302 302 302 302 302 303 302 298 295 295 296 294 293 292 292 292 291 291 292 292 293 292 290 290 289 289 288 288 288 288 288 288 288 288 288 287 287 287 287 287 287 287 287 287 287 286 286 286 286 286 286 286 286 286 286 286 286 286 286 286 286 286 286 286 286 286 286
302 302 302 303 303 303 303 302 300 300 301 301 302 302 301 301 301 301 301 301 301 301 301 301 300 298 295 293 293 294 294 293 293 292 292 291 291 291 291 292 291 291 290 289 289 288 288 288 288 288 288 288 288 288 287 287 287 287 287 287 287 287 287 287 287 287 287 286 286 286 286 286 286 286 286 286 286 286 286 286 286 286 286 286 286 286
301 301 301 302 302 302 302 300 298 299 301 301 301 301 301 300 300 301 300 301 301 300 299 298 295 293 293 293 292 292 293 292 292 292 291 291 291 291 291 291 291 290 290 289 289 288 288 288 288 288 288 288 288 288 287 287 287 287 287 286 286 286 287 286 287 287 287 286 286 286 286 286 286 286 286 286 286 286 286 286 286 286 286 286 286 286
300 300 300 300 301 300 300 299 299 300 300 299 297 297 297 296 297 299 299 299 300 297 295 295 293 292 294 293 291 291 291 291 291 291 291 290 290 290 290 290 290 290 289 289 288 288 288 288 288 288 288 288 288 288 287 287 287 286 286 286 286 286 286 286 286 286 286 286 286 285 285 285 285 285 285 285 286 286 286 286 286 286 286 286 286 286
299 299 300 299 299 300 299 299 300 299 298 296 295 294 294 294 295 297 297 298 297 295 295 294 292 292 293 292 291 291 291 291 292 292 291 290 290 290 290 290 289 289 289 289 289 289 288 288 288 288 288 288 288 288 287 287 286 286 285 285 285 285 285 285 285 285 285 285 285 285 285 285 285 285 285 285 285 285 285 285 286 286 286 286 286 286
298 298 299 299 299 300 299 299 300 298 297 296 296 295 295 295 295 296 297 297 295 294 295 294 291 291 292 292 291 291 291 292 292 292 291 290 289 290 290 290 289 289 289 289 289 289 289 288 288 288 288 288 288 288 287 286 286 285 285 285 285 284 284 284 284 284 284 284 284 284 284 284 284 285 285 285 285 285 285 285 285 285 285 285 286 286
297 298 298 298 298 298 298 297 297 296 295 295 296 296 294 294 294 295 295 296 295 293 293 294 292 292 293 293 292 292 292 291 291 291 291 290 289 289 289 289 289 289 289 289 289 289 289 289 289 288 288 288 288 288 287 286 286 285 285 284 284 284 284 284 284 284 284 284 284 284 284 284 284 284 284 284 285 285 285 285 285 285 285 285 285 285
295 296 297 297 297 297 296 295 295 295 295 295 296 295 293 292 293 294 294 295 294 292 292 292 293 292 292 292 292 292 291 290 290 291 291 289 288 289 289 289 289 289 289 289 289 289 289 289 289 288 288 288 288 288 287 286 285 285 284 284 283 283 283 283 283 283 283 283 283 283 283 283 284 284 284 284 284 284 284 284 285 285 285 285 285 285
293 294 296 296 296 296 295 295 295 294 294 295 294 293 292 292 293 293 294 295 293 291 291 291 292 291 290 290 291 292 291 290 290 290 290 289 289 289 288 289 289 289 289 289 289 289 289 289 288 288 288 288 288 287 286 285 284 284 283 283 283 283 283 282 282 281 281 282 282 283 283 283 283 283 284 284 284 284 284 284 284 285 285 284 285 285
292 293 294 294 295 295 295 295 295 294 295 296 294 292 291 292 292 293 294 294 292 291 292 291 291 290 289 289 290 291 291 290 289 289 289 289 289 288 288 288 288 288 288 288 288 288 288 288 288 288 288 288 287 286 285 284 283 283 283 283 283 282 281 281 280 280 280 281 281 282 282 283 283 283 283 283 283 283 283 284 284 284 284 284 284 284
291 291 291 292 293 294 294 295 294 294 296 296 292 290 291 292 293 293 292 291 291 292 292 292 290 290 289 289 289 290 289 289 289 289 289 289 288 288 288 288 288 288 288 288 288 288 288 288 288 287 287 287 286 285 284 283 283 282 282 282 282 281 280 279 279 279 279 279 280 281 281 281 281 281 281 282 281 281 281 282 282 282 283 283 283 284
291 291 291 291 292 292 292 293 293 293 294 293 291 290 291 292 293 292 290 290 290 290 290 290 290 289 289 288 288 289 289 289 289 288 288 288 288 288 288 288 288 288 288 288 288 288 287 287 287 286 286 285 285 284 283 282 282 282 282 282 281 279 278 278 278 278 278 278 278 279 278 278 278 278 278 278 277 277 277 279 280 280 281 281 282 282
291 291 291 291 291 291 291 292 293 293 292 291 292 292 292 292 292 291 290 290 290 289 289 289 289 289 288 288 288 288 288 288 288 288 288 288 288 288 288 288 288 288 288 287 287 287 286 286 285 285 284 284 283 282 282 281 281 280 281 280 279 278 277 277 277 277 277 277 277 277 276 275 275 274 274 274 274 273 274 275 276 276 277 278 279 280
292 292 291 291 291 291 291 291 292 292 290 290 292 292 292 292 292 291 290 290 290 289 289 289 288 289 288 288 288 288 288 288 288 288 288 288 288 288 288 287 287 287 287 286 286 285 284 284 283 283 283 283 282 282 281 281 279 279 279 278 277 276 276 276 276 276 276 276 275 275 274 273 273 272 271 271 270 270 271 272 272 273 274 275 276 277
292 292 291 290 290 291 291 291 291 291 291 290 291 291 290 290 291 290 290 290 289 289 289 289 289 289 288 288 288 287 288 288 288 288 288 288 288 287 287 287 287 286 285 285 284 283 282 282 282 282 282 282 282 281 281 280 278 277 277 276 275 275 274 275 275 274 274 274 273 272 271 270 269 269 268 268 268 268 268 269 269 270 270 271 272 273
291 291 290 289 290 290 290 290 291 291 291 291 290 290 290 290 290 290 290 289 289 289 289 289 289 289 288 288 287 287 288 288 287 287 287 287 287 287 286 286 285 284 283 282 282 282 281 281 281 281 281 282 282 281 280 279 277 276 275 274 274 274 274 273 272 272 272 271 270 269 267 266 266 266 266 265 266 266 266 266 266 267 268 268 269 270
290 290 289 289 290 289 289 290 291 291 291 290 290 290 290 290 290 290 290 289 289 289 289 289 289 288 288 288 287 287 287 287 287 287 287 286 286 285 285 284 283 282 282 281 281 281 281 281 281 281 281 281 281 280 279 278 276 275 274 274 273 273 272 271 270 269 269 268 266 265 265 264 263 264 263 264 264 264 264 264 265 265 266 266 267 268
290 289 289 289 289 289 290 290 290 290 290 290 290 290 290 290 290 290 290 290 289 289 289 289 288 288 288 287 287 287 287 286 286 286 285 285 284 284 283 282 282 281 281 281 281 281 280 280 280 280 280 280 279 278 277 277 275 274 274 273 272 270 269 269 268 266 265 264 263 263 263 262 262 263 263 263 263 263 263 263 264 264 265 265 266 267
290 289 289 289 289 289 289 290 290 290 290 290 290 290 290 290 289 289 290 289 289 289 289 289 288 287 287 287 286 286 286 285 285 284 284 284 283 282 282 282 281 281 281 281 281 281 280 280 279 279 279 278 277 276 276 275 275 275 273 271 269 267 266 266 265 264 263 262 262 262 262 262 262 262 262 262 263 263 263 263 263 264 264 265 265 266
291 290 290 289 289 290 290 290 290 290 290 290 290 290 290 289 289 289 289 289 289 289 288 288 287 287 286 286 286 285 285 284 284 283 283 282 282 281 281 281 281 281 280 280 280 280 280 279 279 278 278 277 276 275 275 275 274 273 271 269 267 266 265 264 264 263 262 262 262 262 262 262 262 262 262 262 262 263 263 263 263 263 264 264 265 266
Wind_Speed
6 5 4 7 10 9 9 13 14 9 5 5 6 8 10 10 12 14 15 9 3 4 9 11 15 14 14 16 21 30 31 24 21 20 24 28 24 16 15 23 29 29 29 29 28 26 24 21 18 16 14 13 11 11 12 14 15 17 19 20 22 23 25 27 29 31 34 37 40 42 43 45 47 49 50 50 51 51 52 52 52 51 50 50 50 50
5 5 8 14 12 4 3 7 10 8 8 9 8 9 9 9 12 11 14 8 4 2 6 8 13 15 17 19 21 25 21 17 20 21 20 19 19 17 19 25 28 27 26 26 25 23 22 20 17 14 12 10 9 9 10 11 12 13 15 18 20 22 24 26 28 31 33 35 37 39 40 41 44 46 48 50 51 52 53 54 54 53 53 52 51 51
5 7 14 14 4 2 2 4 6 9 10 9 6 6 7 9 10 9 9 3 4 2 6 8 11 13 19 20 19 16 12 17 22 17 12 12 15 18 19 21 23 25 25 25 25 25 24 22 18 15 11 8 8 9 10 10 11 11 12 14 16 19 21 23 26 28 30 33 35 36 37 39 41 44 46 48 51 52 53 54 55 55 55 54 53 52
5 7 12 9 3 4 8 6 6 7 7 7 6 5 8 9 7 6 5 1 2 5 6 10 10 11 15 12 10 10 10 16 15 9 11 13 14 15 14 15 19 22 22 22 25 27 26 25 22 19 15 11 9 9 11 12 13 13 13 14 15 17 19 20 22 24 26 30 32 34 35 37 39 42 44 46 48 50 52 54 55 56 56 55 55 53
9 3 1 2 4 8 10 7 8 7 6 7 8 8 10 10 9 10 4 5 9 5 2 9 9 6 5 3 3 3 8 11 4 5 8 7 9 9 11 17 19 20 21 23 28 32 31 30 27 23 19 14 10 9 10 12 14 14 14 15 15 18 18 18 18 19 22 26 28 31 33 35 38 40 42 45 46 48 51 53 54 55 56 56 56 55
10 2 4 3 3 6 8 8 9 7 6 7 8 12 14 13 12 12 7 5 7 3 2 8 8 2 4 5 2 2 9 9 0 3 5 8 9 10 15 18 19 21 25 30 35 37 35 32 30 27 24 21 18 15 12 10 10 11 11 12 14 16 17 18 16 16 19 22 25 28 30 33 35 37 39 42 44 46 48 49 51 53 54 55 56 56
4 0 2 4 4 5 6 8 7 7 6 6 3 5 9 10 9 9 7 3 4 3 1 3 5 5 5 6 3 5 11 8 2 4 5 10 10 12 16 17 19 23 29 36 39 39 37 35 33 32 30 29 26 23 18 14 12 11 9 8 9 12 13 14 15 15 16 19 22 24 26 29 31 33 36 38 39 41 43 44 46 48 50 52 54 54
2 2 3 4 6 6 6 8 6 9 7 4 1 1 2 4 4 4 4 3 4 5 2 3 3 7 6 5 7 8 9 7 0 4 8 11 11 12 17 23 27 28 33 38 39 39 39 38 37 35 33 31 28 26 24 23 20 17 14 11 10 10 10 10 11 12 13 16 19 21 23 26 28 30 33 34 35 37 39 41 42 43 44 46 49 52
2 4 4 6 6 6 6 3 4 11 7 1 2 1 2 1 1 3 3 3 3 4 4 4 4 6 6 4 6 4 4 6 3 8 9 11 14 16 21 29 32 33 34 36 37 38 38 38 38 36 34 32 29 28 28 26 24 22 22 19 16 14 13 12 11 10 11 13 16 18 21 23 25 27 30 32 33 34 36 37 38 39 39 40 43 46
2 1 3 5 5 5 3 2 2 9 5 1 4 3 4 3 1 1 2 3 2 5 5 7 8 6 6 3 6 1 2 5 3 7 8 12 18 21 25 31 33 33 34 35 36 37 37 37 37 35 34 33 33 32 30 28 26 26 26 25 21 18 17 16 14 13 12 12 14 16 18 21 23 25 28 30 31 33 34 35 36 36 37 37 38 40
2 2 1 3 5 1 4 4 3 1 1 3 3 1 1 1 1 1 1 2 3 7 4 9 12 7 5 2 5 2 0 2 4 7 6 14 20 22 24 28 31 32 33 34 35 35 36 35 35 34 33 34 34 33 32 31 30 28 27 26 23 20 18 16 15 14 13 12 13 15 17 19 21 23 26 27 29 32 33 33 34 35 35 35 35 36
1 2 1 3 3 1 5 3 3 3 1 2 1 2 3 2 2 1 1 1 4 7 1 5 8 8 7 3 2 1 2 3 4 6 7 12 17 20 21 23 28 31 32 34 35 35 35 35 35 34 34 35 34 34 34 34 33 31 29 27 25 23 20 17 15 13 13 12 12 12 14 17 19 22 24 26 27 30 31 32 33 33 33 33 33 34
2 4 2 1 2 4 4 1 2 1 2 3 1 1 4 4 2 3 2 2 5 5 1 2 4 7 10 6 3 4 2 5 5 8 11 14 15 17 17 20 27 31 32 34 35 35 35 36 36 36 37 37 36 36 36 35 34 33 31 30 29 28 26 21 17 14 12 11 11 11 12 14 16 19 22 25 26 28 30 31 32 33 32 32 31 31
3 1 3 2 3 8 10 6 4 3 5 7 4 4 5 4 4 6 4 3 6 4 1 2 4 5 9 6 5 6 4 12 13 15 16 16 15 14 15 19 25 30 32 33 34 35 35 35 35 36 37 37 37 37 36 36 35 34 33 32 31 31 30 28 25 21 17 13 11 10 11 12 14 16 19 22 24 27 29 30 31 32 32 32 31 28
5 5 5 6 2 9 14 11 4 2 4 7 3 3 5 5 6 7 6 7 8 5 2 3 3 4 4 1 5 7 12 15 16 17 16 15 13 12 15 19 25 29 31 31 32 32 33 32 33 34 34 35 35 35 35 35 35 34 33 33 32 32 31 31 30 28 26 22 17 14 12 11 12 14 16 19 22 24 27 29 30 32 32 33 32 30
7 7 2 2 1 8 11 6 2 3 2 3 2 2 5 4 6 7 7 6 5 6 3 3 3 4 3 3 4 13 15 13 13 14 14 13 11 12 16 19 22 25 27 29 30 30 30 30 30 31 32 32 33 33 34 34 34 33 33 32 31 31 31 31 31 31 30 28 25 21 17 14 14 14 15 17 19 21 23 25 28 30 32 33 33 33
5 5 3 3 1 4 3 1 2 1 2 3 3 4 2 1 3 6 7 1 1 7 6 5 7 6 6 9 3 12 13 9 9 10 11 11 11 14 17 17 19 22 24 26 28 29 29 29 29 29 30 30 30 31 32 32 33 33 32 31 31 30 30 30 30 30 29 29 28 26 23 22 20 18 17 17 17 19 20 22 24 26 29 31 33 33
4 6 1 2 3 2 1 2 1 2 1 3 3 2 1 1 0 3 4 1 4 9 6 7 13 11 9 7 4 12 10 6 6 7 8 10 11 14 14 13 16 21 23 24 25 26 26 26 26 27 28 28 28 28 29 29 30 30 31 31 31 31 31 31 31 30 30 29 28 28 27 27 25 24 22 20 19 19 19 20 21 23 25 27 29 32
3 6 3 1 2 0 2 2 3 2 1 1 1 3 2 2 3 3 3 2 7 9 6 10 14 13 10 10 8 4 8 7 5 5 6 8 10 10 10 9 11 15 17 19 21 22 23 24 24 24 24 25 26 26 27 27 27 27 28 29 30 31 31 31 31 31 31 31 31 30 29 28 27 26 25 24 23 22 21 20 20 21 22 23 25 28
2 4 5 0 2 2 2 3 5 4 2 0 1 1 0 2 4 4 2 2 5 9 9 10 12 10 8 9 11 3 9 8 5 6 6 6 7 7 6 6 7 8 11 13 16 20 22 24 25 25 24 24 24 24 25 25 26 26 27 27 27 28 29 30 31 31 31 32 32 32 31 30 29 28 27 26 25 24 24 23 22 22 22 21 22 25
1 3 5 2 1 2 3 5 6 6 4 4 5 4 3 3 2 3 4 3 6 9 10 10 11 9 4 3 2 6 9 6 5 6 5 5 6 5 5 6 8 11 15 17 20 22 24 25 26 26 27 27 28 27 27 27 27 27 27 27 27 27 27 28 29 30 30 30 30 30 30 31 31 31 30 29 28 27 26 26 25 25 25 24 23 23
2 2 5 6 5 7 8 6 4 6 5 4 5 6 6 7 5 7 9 7 7 9 8 10 12 8 1 3 5 8 6 5 6 6 5 6 6 5 7 11 14 17 20 21 21 22 22 23 24 25 27 28 30 31 31 31 31 30 30 29 28 28 28 28 28 28 28 28 28 28 28 29 30 30 31 31 31 30 30 28 28 27 27 27 26 25
1 1 5 9 9 11 14 11 3 2 2 3 4 5 5 6 6 9 11 7 8 9 7 9 12 5 1 2 4 7 7 6 6 6 7 6 5 7 9 12 14 15 16 17 18 19 20 20 21 22 24 25 27 29 30 31 31 31 32 31 31 30 29 28 28 27 26 26 27 27 28 28 28 28 29 30 30 31 31 30 29 28 28 28 27 27
1 1 5 7 8 9 12 9 2 3 3 2 4 4 4 6 7 9 8 4 5 8 8 9 10 4 2 2 4 8 8 7 6 6 7 6 5 6 8 10 11 12 13 14 14 15 16 18 19 20 21 22 24 25 27 29 30 30 31 32 32 32 31 30 29 28 26 26 25 25 26 27 27 27 28 28 28 29 30 30 30 29 29 29 28 27
0 3 3 5 7 6 7 7 4 2 2 1 3 2 3 5 7 8 6 4 4 8 11 12 10 3 2 3 4 6 7 6 6 6 6 5 5 4 4 5 7 9 12 13 14 15 15 16 17 18 20 21 22 23 25 26 28 29 30 31 31 32 32 32 32 31 30 28 26 25 25 26 26 27 27 28 27 27 28 29 29 29 29 29 29 29
1 2 1 4 7 6 7 7 4 1 0 1 1 3 4 6 7 6 5 6 6 7 9 9 7 2 3 4 5 6 6 7 7 7 5 5 4 4 3 2 3 6 8 10 12 14 15 16 17 17 18 19 20 21 22 23 24 26 27 28 30 31 31 32 32 33 33 33 32 30 28 26 26 27 27 28 28 28 28 28 28 29 29 29 29 30
1 3 5 8 9 9 11 11 6 3 6 7 7 8 8 9 9 7 6 7 7 7 8 8 11 10 5 6 8 8 7 7 7 7 7 7 6 5 3 1 3 4 5 8 9 10 12 14 15 17 18 18 19 19 20 21 22 23 24 25 26 28 29 31 32 32 33 34 35 34 33 30 29 28 28 28 29 30 30 29 28 29 29 29 30 30
2 6 10 13 14 14 16 17 14 12 14 15 14 14 14 14 14 12 13 12 10 10 8 8 13 14 11 9 7 9 8 7 6 7 7 7 6 5 3 1 3 4 6 7 8 9 11 13 15 16 17 17 18 18 18 18 20 21 23 24 25 26 28 29 31 32 32 34 35 36 36 35 33 31 30 30 30 30 30 30 30 30 29 30 30 30
4 9 12 14 16 17 18 20 19 17 16 16 17 18 18 19 19 19 19 18 15 14 11 11 16 17 16 16 8 6 7 6 6 5 4 4 4 4 3 3 3 6 8 9 10 12 13 15 16 17 17 17 17 18 18 19 19 20 21 23 24 25 26 27 29 30 31 33 34 35 37 37 37 35 34 33 32 32 31 31 32 32 31 31 30 31
5 8 11 12 13 14 14 15 14 12 13 13 15 16 16 18 21 20 19 19 18 17 16 17 19 20 17 13 4 6 6 5 5 4 3 3 4 5 5 4 4 7 9 11 13 14 15 17 18 18 19 19 20 21 22 22 23 23 23 23 24 24 25 26 27 29 30 32 33 34 36 37 38 38 37 36 35 35 34 33 33 33 34 34 33 32
5 6 5 5 8 8 10 10 10 11 12 13 14 15 17 18 19 18 16 16 15 15 16 17 19 17 9 0 5 8 6 4 3 3 3 3 4 5 6 6 5 7 9 11 14 16 17 19 20 20 21 22 22 23 24 25 25 26 26 26 26 26 26 27 27 28 30 30 32 33 35 36 38 39 40 40 40 39 37 36 35 34 34 35 35 35
4 4 2 3 7 8 9 12 13 14 15 17 17 18 20 19 17 16 15 13 12 15 18 19 17 11 1 5 5 6 6 3 3 4 4 3 3 5 7 7 7 8 9 11 14 16 18 19 20 21 22 23 23 24 24 25 27 28 28 29 30 30 30 30 30 31 31 32 32 33 34 35 37 38 40 41 43 43 42 41 39 38 36 35 36 36
3 3 3 5 6 6 8 9 7 6 9 12 12 15 18 19 18 18 16 15 17 18 16 13 9 3 4 5 4 5 5 5 5 5 5 5 5 6 8 9 9 10 10 12 15 17 18 20 21 22 23 24 25 25 25 26 27 29 29 30 31 31 32 32 33 33 34 34 35 35 35 36 37 38 39 41 42 44 45 46 45 43 41 39 38 38
4 5 6 5 5 6 7 3 1 4 8 5 2 5 9 12 14 16 16 17 16 10 4 2 1 3 5 5 3 3 4 6 7 7 7 7 8 9 10 11 11 11 12 14 16 18 19 20 22 23 24 26 27 27 28 28 29 30 31 31 31 32 32 33 34 35 36 36 36 37 37 38 38 38 39 40 42 44 45 47 48 47 46 45 43 42
6 7 7 6 6 7 5 2 5 10 7 1 3 1 3 5 7 11 14 16 10 2 2 3 5 6 6 4 2 3 5 8 9 10 11 11 12 13 14 14 14 13 14 15 17 19 21 22 24 26 27 28 29 30 31 32 33 34 34 34 34 35 35 35 35 35 36 37 37 37 38 39 40 40 40 40 42 43 45 47 49 50 49 49 48 47
9 9 8 6 7 6 3 5 9 7 2 2 4 1 0 3 6 8 12 11 5 5 6 6 7 7 6 4 3 5 8 10 10 14 17 16 14 17 19 18 17 16 17 18 19 21 23 24 26 27 29 31 32 34 34 35 35 36 37 37 37 38 38 38 38 38 38 38 39 39 39 40 41 42 42 42 42 43 44 46 49 50 51 52 52 51
11 9 8 6 6 6 6 8 9 7 5 8 7 3 2 4 4 4 7 5 5 7 8 8 8 6 6 7 8 8 8 7 8 14 19 16 13 16 19 20 19 20 20 21 23 24 26 27 29 30 31 33 36 37 37 37 38 39 39 40 40 40 40 40 40 40 41 41 41 42 41 42 43 44 45 46 46 46 45 46 48 50 51 53 54 54
11 11 9 7 6 6 9 10 9 9 7 4 4 3 1 2 1 1 3 2 4 8 9 9 8 6 6 7 9 7 5 4 5 10 13 11 10 12 16 19 20 22 23 25 26 28 30 31 32 33 34 36 38 39 40 41 41 42 43 42 42 42 42 42 42 43 44 45 45 45 45 45 46 47 47 48 49 50 50 49 49 50 51 53 55 56
7 9 9 7 6 6 9 9 8 8 4 1 3 3 2 3 2 1 3 4 3 10 13 10 6 6 6 8 9 8 4 4 5 9 12 12 12 12 15 18 20 22 25 26 29 32 33 34 34 35 35 37 39 41 42 43 44 44 44 44 44 45 45 46 46 47 47 48 48 49 49 49 50 50 51 51 52 52 53 53 53 53 54 54 55 57
3 4 6 7 7 9 10 8 7 7 3 0 3 3 4 4 2 2 7 6 4 13 16 12 8 6 7 10 8 7 6 8 8 11 15 17 17 16 17 19 20 22 25 27 30 33 34 35 35 36 38 39 41 42 43 44 45 45 46 46 47 48 49 49 50 50 51 52 53 53 54 54 54 54 54 55 55 55 56 56 56 57 57 57 57 58
2 1 4 7 9 11 11 8 6 5 3 3 3 4 7 5 2 6 8 1 12 18 17 15 13 11 11 13 10 8 12 16 17 19 20 20 22 22 21 21 22 23 25 27 30 32 33 35 36 37 39 41 42 44 44 44 45 46 47 48 50 51 51 51 52 53 54 56 57 58 58 58 59 59 59 59 59 59 59 59 58 59 60 61 61 61
2 1 3 5 6 7 8 8 7 6 5 7 5 6 7 3 4 7 3 7 15 17 15 16 18 15 15 18 16 17 21 22 22 23 22 23 24 24 23 23 23 25 27 28 30 31 32 34 36 39 41 43 44 45 44 44 46 48 49 51 52 52 52 53 54 56 57 59 60 61 62 62 62 63 63 63 63 62 62 62 62 62 62 63 64 64
3 2 4 5 3 3 5 6 6 6 3 9 9 5 5 6 3 1 5 7 9 10 11 15 18 17 18 20 21 22 24 24 24 24 24 24 24 24 24 24 25 27 28 29 30 31 32 35 38 41 43 44 44 44 44 45 48 49 52 54 54 54 54 56 57 58 60 62 63 64 64 63 63 64 65 65 64 63 64 66 65 64 64 64 65 66
3 5 6 4 2 3 6 6 4 4 1 11 11 3 4 11 9 5 4 7 9 12 14 15 17 19 19 19 21 22 22 23 24 24 24 24 25 25 25 25 26 28 29 30 31 32 33 36 39 41 43 43 43 44 46 47 49 51 53 55 55 55 57 59 60 61 63 65 66 67 66 65 65 65 65 64 63 62 64 66 66 65 65 65 65 65
6 7 6 4 2 3 7 7 3 5 5 9 13 11 12 16 20 18 18 19 20 22 20 16 17 20 19 18 20 20 21 23 23 23 24 25 25 26 26 27 27 28 29 30 31 33 34 36 38 40 42 43 44 46 49 50 50 52 54 55 56 57 59 61 62 63 65 66 67 67 67 67 67 66 64 63 63 63 65 66 65 64 64 63 63 64
10 8 2 2 4 6 10 12 10 12 17 15 15 20 22 24 28 28 27 28 28 26 23 20 21 23 21 19 19 20 22 23 23 24 25 25 26 26 26 27 28 28 29 30 32 33 34 36 38 41 43 45 46 48 51 52 52 53 55 55 55 55 56 57 58 60 62 63 64 65 65 65 65 65 63 63 63 62 62 62 60 60 60 58 58 59
12 11 5 4 9 9 10 13 11 14 21 21 18 21 23 26 30 32 31 30 29 28 26 24 24 23 21 20 20 21 23 23 23 24 25 25 26 26 26 27 28 28 29 30 32 33 35 38 40 43 45 48 49 51 53 54 54 53 52 51 51 51 52 53 54 56 59 60 60 61 60 60 60 60 60 59 58 57 57 55 51 50 52 51 49 50
7 6 6 8 12 11 13 17 18 21 26 26 24 25 27 28 31 33 32 32 31 29 27 25 24 23 22 21 20 21 22 22 22 23 24 25 25 25 25 27 28 29 30 31 32 35 37 40 43 45 48 50 52 53 55 55 53 50 47 47 47 48 50 52 52 54 57 58 57 57 56 54 54 53 52 51 50 48 48 48 44 43 46 46 41 40
6 4 4 5 9 11 14 19 21 21 23 25 26 28 31 32 32 32 31 30 29 28 26 25 24 23 22 20 19 19 21 22 21 22 23 24 25 25 26 27 28 29 31 32 34 36 39 42 45 47 50 52 53 53 54 52 49 46 44 45 46 46 48 51 51 52 53 53 51 50 48 45 44 42 41 41 41 40 39 40 39 40 44 46 42 39
9 6 5 5 7 9 11 15 15 12 13 18 21 22 22 24 25 25 26 26 26 27 27 26 25 23 20 19 19 19 21 21 21 21 23 24 24 25 26 28 29 31 32 34 36 39 41 43 46 48 51 52 52 51 50 48 46 45 44 44 43 43 45 48 49 50 50 47 43 41 40 40 40 39 39 39 39 40 40 39 37 37 41 44 43 41
15 12 9 9 10 12 15 19 18 13 14 21 24 22 22 24 24 25 27 28 28 28 27 24 23 21 19 20 20 20 20 21 21 22 23 24 24 25 26 28 30 32 34 36 38 41 43 45 47 48 50 50 48 46 45 45 45 45 44 42 41 41 43 44 46 48 47 43 40 39 39 41 41 40 40 40 39 40 41 42 40 38 38 39 40 41
Wind_Direction
178 190 193 227 243 237 212 214 237 261 292 287 278 270 273 280 277 276 279 288 19 309 278 280 290 296 291 281 277 278 280 285 288 280 271 272 282 298 304 302 306 313 326 335 338 342 341 343 346 344 349 352 347 340 327 316 309 303 297 290 284 279 274 268 264 260 256 252 248 245 243 241 239 239 238 238 238 238 238 239 239 239 239 239 239 238
191 208 218 233 246 259 218 223 244 260 261 254 257 270 271 267 269 274 286 304 48 317 269 277 293 300 293 280 272 275 283 287 278 268 267 278 293 304 304 307 317 325 336 347 352 355 354 352 350 349 354 356 353 343 326 314 304 299 297 295 293 290 285 280 275 270 266 262 259 256 253 250 245 242 240 239 238 238 237 238 238 238 238 238 238 237
200 224 233 235 231 76 222 221 231 242 251 251 247 264 268 265 272 270 271 303 81 283 292 302 301 292 278 275 279 282 275 266 265 268 284 296 295 298 307 319 332 343 352 360 5 10 10 10 5 1 3 356 345 330 315 303 292 287 286 287 290 290 289 287 282 278 274 270 266 264 260 257 253 250 247 244 242 241 240 240 239 239 238 238 237 237
217 230 240 238 163 205 239 225 224 242 246 239 235 251 260 262 276 270 247 63 332 282 293 296 289 276 267 262 273 275 255 258 271 295 295 291 296 302 322 348 356 360 6 9 14 21 24 28 25 17 13 359 336 318 307 299 293 290 287 283 282 282 284 285 283 282 279 273 270 266 262 260 257 255 253 251 249 247 245 244 243 242 240 239 238 237
246 237 183 206 187 220 240 235 229 243 249 233 222 234 254 261 264 266 277 347 309 275 281 300 286 263 253 177 174 252 265 264 289 340 309 314 326 336 13 27 27 21 21 24 26 31 35 37 35 31 27 16 3 347 325 310 304 303 299 291 286 284 283 283 285 285 281 276 272 268 264 261 259 257 255 254 252 250 248 247 245 244 242 241 240 239
260 256 123 149 175 202 226 244 230 221 253 254 223 227 247 264 271 274 292 341 302 255 61 340 321 263 183 160 123 313 274 266 97 347 356 32 11 29 48 39 35 32 34 38 37 38 39 40 40 40 38 34 30 23 6 343 328 325 318 308 300 297 294 291 288 287 284 280 277 272 268 265 263 262 261 259 258 257 255 253 251 248 246 244 242 240
258 281 154 188 188 178 210 250 226 189 238 266 234 225 240 255 268 276 288 306 288 284 27 345 309 281 226 199 214 234 251 265 345 338 29 61 36 40 50 42 39 36 40 45 44 43 42 40 41 40 39 38 36 33 30 25 16 10 3 348 333 324 315 307 301 297 292 287 283 280 277 273 271 269 268 268 268 267 266 264 261 258 255 251 247 244
166 121 111 177 192 193 217 248 209 176 218 255 99 96 194 227 245 239 254 256 275 307 290 201 235 284 268 199 207 221 243 261 247 38 38 58 59 53 47 46 46 42 43 46 46 45 44 43 43 42 41 39 38 38 39 39 36 34 35 36 23 4 351 337 323 315 307 298 292 289 285 280 277 276 274 275 275 273 272 270 269 266 263 259 254 249
127 170 170 167 180 209 219 239 164 179 215 313 72 40 83 86 227 189 234 258 280 312 280 186 176 277 280 179 194 232 258 242 148 69 48 54 61 56 46 46 48 45 45 46 46 46 46 45 46 45 44 42 41 41 41 43 44 43 41 40 39 33 24 15 2 346 330 313 301 295 289 284 283 280 277 277 277 276 275 274 272 271 268 264 259 254
59 165 205 171 183 223 209 48 146 187 208 101 124 100 76 68 58 153 266 288 284 286 261 172 169 263 294 178 176 220 230 202 103 50 60 69 57 48 45 46 47 46 44 45 46 46 46 45 45 45 44 42 41 40 39 39 41 42 40 36 37 41 39 34 26 14 358 338 320 307 298 292 289 285 281 280 279 278 277 276 275 274 272 270 266 261
79 51 356 212 231 262 93 57 12 144 116 131 152 69 68 159 106 156 282 334 276 271 242 164 177 222 289 204 168 169 255 131 53 23 49 68 56 47 45 44 45 44 43 43 43 44 45 44 44 42 41 40 39 37 36 34 34 36 36 33 32 35 38 40 38 29 17 360 341 323 311 304 297 291 287 286 283 281 281 280 279 278 276 274 272 268
181 195 241 238 245 92 100 84 38 51 77 190 185 332 294 243 193 181 152 124 254 268 286 143 177 203 238 240 130 92 50 50 22 8 37 60 57 50 45 44 46 46 44 43 42 41 41 39 38 37 36 36 35 33 33 32 33 33 32 31 29 28 27 31 37 36 29 15 358 339 323 313 304 297 292 290 288 286 285 284 282 280 279 278 276 273
211 208 208 296 246 185 179 174 112 115 210 211 202 246 273 279 252 252 248 203 251 261 58 108 172 213 245 248 257 276 22 70 48 40 58 70 65 56 49 45 48 49 47 45 43 40 38 37 36 35 34 34 33 33 34 34 34 33 32 31 30 28 25 22 24 28 30 25 10 354 337 324 313 304 298 294 291 288 288 287 284 283 282 281 280 278
256 237 153 188 245 195 190 201 212 200 184 190 192 199 230 268 273 270 262 252 267 263 90 130 177 234 270 266 246 267 42 70 72 69 74 79 75 66 57 50 50 51 50 47 45 43 41 39 37 36 35 34 33 32 33 34 35 35 35 33 31 31 29 26 25 21 20 17 11 359 344 332 323 315 307 301 297 293 290 289 287 286 285 284 284 282
254 281 184 176 174 173 189 213 222 109 161 190 183 201 233 255 259 267 259 251 269 272 136 139 177 227 274 348 105 99 75 68 72 78 80 78 76 71 62 54 51 50 50 50 48 45 43 40 38 37 35 34 33 31 29 30 31 32 34 34 33 32 30 29 29 27 24 18 10 360 346 336 328 321 315 309 305 300 296 294 290 288 287 287 287 286
235 264 171 129 78 164 188 216 134 94 181 182 115 230 250 244 231 251 265 258 282 289 231 185 224 229 258 297 106 102 85 70 67 71 73 70 68 65 56 49 48 47 47 49 49 46 43 41 39 37 35 33 31 30 29 28 27 27 29 30 31 32 31 29 28 28 28 25 20 11 358 348 339 327 318 311 309 306 303 300 296 293 290 289 288 287
245 255 101 73 275 189 193 5 90 228 247 138 157 214 234 338 237 254 269 250 242 269 250 226 253 253 271 278 189 108 87 73 67 61 63 61 59 60 53 44 44 47 47 46 48 46 42 40 38 36 35 33 30 29 29 28 27 26 25 24 25 26 26 27 27 27 27 26 24 20 13 7 358 346 332 318 310 306 303 300 299 297 295 293 291 289
295 283 216 143 247 232 25 352 333 281 298 149 193 245 353 40 278 253 266 257 233 253 247 235 256 266 275 273 143 113 99 83 69 62 64 59 56 58 54 44 43 49 51 51 51 49 45 40 37 35 32 31 30 28 28 27 26 25 23 23 22 21 21 21 21 22 22 22 21 20 18 15 9 1 351 338 324 313 305 301 299 298 297 297 296 294
6 303 287 166 255 35 104 250 255 223 227 239 293 353 357 252 245 223 224 246 241 252 252 236 247 257 255 257 254 186 124 113 98 84 74 60 58 57 53 47 41 43 47 48 49 48 47 44 39 36 32 28 26 24 23 23 21 20 19 17 16 16 16 15 14 14 13 14 15 15 15 15 14 10 3 354 343 332 321 311 302 296 295 295 295 295
80 277 282 96 103 81 126 212 231 202 165 171 270 307 304 264 276 259 260 302 256 257 262 249 248 248 241 261 277 252 122 129 136 106 88 71 68 61 50 41 32 34 35 36 39 39 39 38 36 34 31 28 25 22 20 18 16 15 14 11 9 7 6 6 7 7 6 6 7 7 8 10 10 11 11 7 360 351 342 330 317 305 297 293 291 291
149 243 267 284 169 251 238 215 234 251 235 208 221 225 212 215 289 296 270 247 250 259 263 261 258 250 251 334 20 107 113 124 121 105 100 88 78 66 53 39 31 34 34 33 33 31 30 30 28 27 25 23 21 18 17 16 15 14 13 12 10 6 3 2 1 1 2 1 360 359 359 0 0 1 3 4 4 2 357 348 337 324 311 299 291 288
237 233 252 271 266 258 259 239 228 264 271 252 240 236 238 241 261 278 257 226 230 251 255 263 265 253 268 28 91 114 112 106 107 107 104 92 78 59 45 38 36 34 32 31 29 26 25 23 21 19 17 14 13 12 12 11 11 10 10 10 10 9 8 6 3 1 360 358 356 354 353 353 353 353 353 354 357 360 0 358 352 342 330 316 304 295
222 230 249 265 263 260 270 272 246 200 236 270 257 243 254 256 245 254 260 253 248 248 241 254 261 255 86 52 97 107 111 116 119 120 114 103 79 60 49 42 41 37 32 30 27 25 23 19 17 16 13 11 10 9 8 6 5 4 3 2 3 4 5 4 4 2 359 356 355 353 350 348 346 346 346 347 349 352 355 356 355 351 344 335 324 311
74 234 246 261 268 266 268 270 244 142 159 230 241 223 228 240 243 255 271 293 276 257 252 256 257 247 110 97 93 103 119 127 132 136 129 122 102 77 64 56 51 45 39 34 29 26 21 17 15 12 11 9 6 4 2 1 0 359 358 357 356 356 357 357 358 357 356 355 353 351 349 347 344 342 341 341 344 346 347 350 352 351 349 344 339 330
4 254 263 271 274 270 258 255 243 167 153 241 267 270 262 271 285 284 277 285 266 236 238 252 262 259 114 116 114 125 140 149 156 157 149 142 135 118 96 71 52 44 42 37 34 31 26 23 20 15 12 8 5 2 360 357 356 355 356 355 354 353 352 351 351 351 352 351 350 348 346 345 344 342 340 339 338 339 340 341 344 347 348 347 344 341
230 242 255 261 263 265 264 267 265 187 132 345 286 280 300 306 301 294 278 274 269 239 233 252 271 287 117 153 187 182 177 176 173 171 167 166 166 162 154 94 39 34 32 29 31 31 28 27 25 21 17 12 7 4 359 356 354 352 351 351 351 350 349 348 348 347 347 348 348 348 346 344 343 342 341 340 337 336 336 336 337 339 342 345 345 343
224 230 229 241 252 262 268 271 277 275 276 276 263 257 269 277 274 274 266 257 270 281 269 264 276 280 260 218 201 186 190 191 180 184 188 187 191 189 185 69 28 16 12 17 17 16 18 20 20 19 17 14 10 6 1 357 353 350 349 348 347 346 344 343 344 344 344 344 344 345 345 345 344 343 341 340 339 337 335 334 334 333 334 337 339 341
240 254 248 248 251 256 265 270 273 274 272 272 272 270 270 272 270 268 262 258 272 283 265 254 270 274 271 263 223 173 184 195 178 188 197 194 199 201 205 286 6 2 1 6 2 0 4 5 8 11 10 8 6 3 359 355 353 350 349 348 347 345 343 340 340 340 340 340 340 340 340 341 342 343 342 340 337 335 333 333 333 333 332 331 331 334
241 257 254 256 258 260 265 269 270 270 271 272 272 271 271 271 268 264 264 268 272 270 268 277 281 277 278 281 268 167 170 182 168 178 193 198 214 221 239 283 341 355 355 355 354 356 358 357 357 357 356 355 354 353 351 350 349 348 347 347 346 344 342 340 338 337 337 336 336 335 335 335 335 336 338 338 336 334 333 332 332 332 333 332 330 328
219 249 249 251 261 263 262 268 271 273 276 274 268 268 268 267 265 266 271 275 272 269 276 284 282 277 278 281 254 146 150 162 164 184 203 209 221 228 242 268 315 339 345 348 349 351 352 351 350 347 345 345 343 342 342 341 341 341 340 340 340 339 338 336 334 334 333 333 333 331 331 330 330 330 331 332 333 333 332 331 330 330 331 333 332 330
229 249 249 249 264 262 255 264 271 272 274 272 266 264 260 258 260 263 268 271 271 272 275 273 271 270 274 295 128 145 154 161 187 220 233 229 224 227 241 260 294 321 332 338 341 346 347 346 345 343 340 340 338 337 336 335 333 332 331 330 330 330 329 328 327 327 327 327 327 327 326 326 326 326 327 328 329 329 329 330 329 329 329 330 331 331
268 280 335 294 271 262 260 268 274 275 274 268 261 256 254 255 258 258 259 264 268 272 272 270 270 271 218 109 130 158 165 195 240 250 264 273 257 246 252 262 281 301 314 325 332 339 341 340 340 338 336 334 333 332 332 331 329 328 326 324 323 322 322 321 320 320 320 320 321 321 321 321 321 322 323 324 325 325 325 326 326 326 327 327 328 328
271 283 294 276 267 261 262 271 285 287 270 258 246 244 248 252 254 254 255 254 252 258 267 268 271 277 120 127 150 167 184 227 253 257 264 275 276 267 263 267 280 293 303 316 326 331 334 335 334 332 331 329 327 327 327 326 325 324 322 320 318 317 317 316 315 315 315 315 316 316 317 317 317 318 319 320 321 321 321 321 321 322 323 323 323 324
235 252 259 259 266 269 267 288 16 250 250 251 216 236 252 259 259 257 257 253 248 251 270 282 147 126 135 144 159 178 216 248 259 260 264 274 277 274 269 269 280 291 298 309 321 324 327 329 329 328 328 326 325 324 323 323 323 322 319 317 316 315 314 313 312 311 311 312 312 313 313 312 312 313 314 315 316 317 317 318 318 318 319 320 319 319
232 241 251 252 259 270 275 282 261 251 250 330 50 17 319 309 280 268 266 263 258 226 124 138 142 151 155 158 189 226 258 271 273 271 273 275 274 275 274 271 275 286 295 304 313 317 320 322 323 325 325 325 325 324 323 323 323 321 319 317 317 316 315 314 312 310 310 310 310 310 309 309 309 309 310 311 312 312 313 314 314 314 315 316 315 315
235 240 249 246 249 262 243 222 248 264 303 288 265 227 331 279 259 258 267 262 218 182 199 181 156 162 170 182 221 243 264 279 281 274 273 276 278 275 271 269 274 283 292 300 306 310 313 315 316 318 320 323 324 324 324 324 322 320 318 316 316 315 314 313 311 311 311 310 309 308 307 307 306 306 307 308 308 308 309 309 309 310 311 311 311 311
229 239 247 245 240 249 247 241 257 287 293 266 258 222 198 244 240 248 274 263 170 186 198 170 159 173 184 208 233 246 262 281 286 274 274 284 288 275 266 267 275 282 287 293 300 304 308 310 311 313 316 318 320 322 322 321 319 318 316 314 314 313 312 311 310 311 311 309 307 307 306 305 305 304 304 304 304 304 304 304 304 304 305 306 306 306
229 236 240 247 246 247 266 271 269 274 275 257 254 264 238 243 226 193 277 263 177 191 187 164 170 185 188 216 225 219 235 268 274 270 279 296 298 279 270 271 276 281 284 289 296 301 304 306 306 308 310 312 313 316 317 317 316 315 314 313 313 313 311 310 311 311 309 307 307 306 305 304 303 302 302 301 301 301 301 300 300 300 300 301 301 301
225 235 236 249 259 248 259 267 258 261 275 174 232 254 151 154 161 171 269 286 175 180 181 170 178 192 208 229 209 178 193 246 257 271 287 304 305 291 286 285 284 284 285 288 292 297 299 301 301 302 305 306 308 311 313 314 314 314 313 313 313 312 311 311 311 310 307 306 305 304 303 302 301 300 300 299 298 298 298 298 297 297 296 296 297 297
179 223 223 230 243 241 245 251 250 260 293 321 248 224 144 137 129 244 279 292 178 185 189 188 203 229 250 248 216 175 206 238 258 283 294 301 301 295 293 294 294 292 291 291 293 294 295 297 298 300 302 303 306 309 312 313 313 312 311 311 311 310 311 311 309 307 306 304 303 302 301 300 299 298 297 296 295 294 294 294 294 294 293 293 293 294
158 203 222 225 236 239 239 247 256 260 254 237 228 157 132 118 154 254 279 240 174 194 200 202 221 249 261 251 227 209 233 248 265 282 290 293 293 292 291 293 295 296 296 296 297 297 297 298 299 300 300 302 305 308 311 312 311 310 310 310 309 309 309 308 306 304 303 302 301 299 299 297 296 295 294 293 292 291 290 289 289 290 290 290 290 290
180 166 231 227 233 238 243 253 267 271 238 200 172 135 140 168 264 256 248 138 171 199 209 212 228 253 264 257 247 243 252 263 273 279 284 287 289 291 292 294 295 296 297 298 299 300 299 299 299 299 299 301 304 307 310 310 308 308 308 307 307 307 306 304 303 302 301 300 299 298 297 296 295 294 293 292 291 290 288 287 286 285 285 285 286 286
221 230 245 231 210 233 255 249 251 279 246 164 150 124 165 212 257 163 154 165 191 221 232 230 241 258 263 262 262 260 263 270 274 275 280 286 289 292 293 295 296 296 297 299 299 299 299 299 299 299 301 302 305 307 308 308 307 306 306 305 305 305 303 302 301 301 300 299 298 297 296 295 294 293 292 291 290 289 288 286 285 284 283 282 283 283
220 226 249 249 183 212 255 240 215 300 324 155 167 204 215 217 233 242 247 261 267 272 269 256 258 270 270 266 267 267 267 270 273 278 283 287 290 293 294 295 295 295 297 298 298 299 300 300 300 301 302 304 306 307 307 307 306 305 304 304 304 303 302 301 301 301 300 299 298 297 295 294 293 292 291 290 289 289 288 286 286 285 284 282 282 282
211 216 243 267 211 206 262 265 257 301 283 187 199 247 262 252 256 265 275 280 281 282 280 270 272 284 286 277 270 268 267 270 275 281 285 287 290 291 292 293 294 296 298 298 299 300 300 300 301 302 304 306 308 308 307 306 305 305 304 303 303 303 303 304 304 303 301 300 299 297 296 295 293 291 291 290 289 289 288 287 287 287 286 285 283 282
236 235 238 303 267 257 266 263 255 267 269 251 241 255 265 270 274 276 278 278 280 284 284 281 285 291 290 282 274 269 269 273 278 281 283 285 288 289 291 293 296 298 300 300 301 302 302 303 304 305 306 308 309 307 306 305 305 305 305 305 306 307 307 307 306 305 303 302 300 298 297 296 294 293 292 291 291 291 290 290 290 288 288 287 285 283
245 236 215 242 259 263 266 259 246 254 264 265 264 265 267 271 276 279 279 279 281 286 288 288 290 289 285 280 273 269 272 276 277 279 282 284 286 289 293 297 299 301 302 302 303 305 305 306 307 307 308 308 308 307 305 304 305 306 307 309 310 311 310 308 307 305 304 302 301 299 299 299 297 297 296 296 295 294 292 291 290 287 287 286 284 283
240 214 206 235 247 249 260 265 265 265 267 268 268 270 270 271 273 276 278 279 282 286 287 287 287 285 281 278 271 268 273 276 276 279 283 285 288 293 297 299 301 302 303 305 306 307 308 309 309 309 308 307 307 306 305 305 307 309 311 312 313 314 312 310 310 308 306 305 304 302 302 302 301 300 299 298 296 294 291 290 287 283 284 284 280 278
236 180 177 225 249 253 258 264 267 270 270 267 262 262 266 270 273 275 277 279 281 284 286 286 285 281 276 271 268 270 274 276 278 281 283 285 291 296 298 300 303 304 305 307 308 310 311 311 310 309 308 307 306 306 306 307 309 312 315 318 318 318 315 313 312 311 308 307 305 303 302 301 299 297 295 293 291 288 284 283 281 280 283 285 282 277
238 224 205 221 254 257 253 253 254 257 268 270 265 261 265 273 275 275 278 279 279 281 285 284 280 275 269 268 273 276 277 278 279 281 284 289 295 298 301 303 304 305 307 309 311 312 312 311 309 308 307 307 307 308 309 309 311 317 322 324 323 321 317 314 313 310 307 305 300 298 298 296 294 293 291 289 288 286 284 282 278 276 278 281 283 283
232 234 228 229 245 254 256 256 250 246 261 272 274 274 276 279 278 277 278 280 280 281 281 277 271 269 271 274 277 277 276 277 280 283 288 293 296 299 303 304 305 307 310 312 313 313 312 310 309 308 307 308 310 311 312 313 318 324 329 328 325 320 315 312 310 306 304 301 297 295 295 294 292 292 290 289 287 287 286 286 283 280 276 276 279 284